Location: Saint-Restitut
(44.3351°N, 4.7915°E)
Time: 15:06:21
(UTC+00:00)

CSL-04 Debris - Pass Details

Date: 21 February 2024
Orbit: 824 x 843 km, 98.8° (Epoch: 21 April)

Event Time Altitude Azimuth Distance (km) Brightness Sun altitude
Exits shadow 20:57:44 16° 251° (WSW) 2,027 6.5 -39.2°
Maximum altitude 20:59:03 18° 269° (W) 1,952 6.5 -39.4°
Drops below altitude 10° 21:02:35 10° 311° (NW) 2,435 7.2 -39.9°
Sets 21:05:46 0° 330° (NNW) 3,372 8.0 -40.4°
